User: anonymous
Location: Lawrence
(38.9720°N, 95.2350°W)
Time: 15:09:22
(UTC-05:00)
Language:

JAS-1B - Orbit

View from above orbital plane
View from above orbital plane
View from above satellite
View from above satellite

Ground track
Ground track

The orbit data is extracted from the following two-line orbital elements,

1 20480U 90013C   14263.77680801 -.00000014  00000-0  34887-4 0  8494
2 20480 099.0565 208.9806 0540944 137.2613 286.1711 12.83395750153392
Epoch (UTC): 20 September 2014 18:38:36
Eccentricity: 0.0540944
inclination: 99.0565°
perigee height: 911 km
apogee height: 1744 km
right ascension of ascending node: 208.9806°
argument of perigee: 137.2613°
revolutions per day: 12.83395750
mean anomaly at epoch: 286.1711°
orbit number at epoch: 15339

The dashed part of the orbit path shows where the satellite is in the earth's shadow,  

DLR